[[{"header":{"parameterUnit":"m.s-1","parameterCategory":1,"la1":30.2991,"la2":30.254,"lo1":-89.0895,"lo2":-89.0444,"dy":0.0017,"dx":0.0017,"nx":28,"ny":28,"refTime":"2024-03-17T03:00:00:Z","depth":0,"parameterNumber":2,"parameterNumberName":"U-component_of_WINDS"},"data":[0,0,0,0,0,0,0,0,0,0,0,0,0,0,0,0,0,0,0,0,0,0,0,0,0,0,0,0,0,0,0,0,0,0,0,0,0,0,0,0,0,0,0,0,0,0,0,0,0,0,0,0,0,0,0,0,0,0,-0.2402,-0.2401,0,-0.231,-0.2309,-0.2308,-0.2249,-0.2249,-0.2249,-0.2248,-0.2153,-0.2151,-0.2149,0,0,0,0,0,0,0,0,0,0,0,0,0,-0.2528,-0.2526,-0.2402,-0.24,-0.2399,-0.231,-0.2309,-0.2307,-0.2249,-0.2249,-0.2249,-0.2248,-0.2154,-0.2151,-0.2149,0,0,0,0,0,0,0,0,0,0,0,0,0,-0.2459,-0.2526,-0.2402,-0.236,-0.2355,-0.231,-0.2309,-0.2307,-0.225,-0.2249,-0.2249,-0.2248,-0.2155,-0.2152,-0.2148,-0.2138,0,0,-0.2138,-0.2137,0,0,0,0,0,0,0,0,-0.2463,-0.2454,-0.2367,-0.2363,-0.2357,-0.2291,-0.2318,-0.225,-0.225,-0.229,-0.2248,-0.2248,-0.2199,-0.2192,-0.2176,-0.2133,-0.2129,-0.2138,-0.2136,-0.2135,-0.2134,0,0,0,0,0,0,0,-0.2467,-0.2458,-0.2365,-0.2366,-0.236,-0.2346,-0.2335,-0.2305,-0.2248,-0.2286,-0.2282,-0.2272,-0.2197,-0.218,-0.2174,-0.2128,-0.2138,-0.2135,-0.2133,-0.2132,-0.2075,-0.2076,0,0,0,0,0,0,-0.2479,-0.2462,-0.2368,-0.2362,-0.241,-0.2344,-0.2332,-0.2312,-0.2249,-0.2238,-0.2272,-0.2269,-0.2185,-0.2177,-0.217,-0.2155,-0.2135,-0.2131,-0.213,-0.2075,-0.2075,-0.2076,0,0,0,0,0,0,-0.2482,-0.2471,-0.2372,-0.2411,-0.2397,-0.2342,-0.2321,-0.2311,-0.2294,-0.2238,-0.2228,-0.2265,-0.2185,-0.2175,-0.2147,-0.2151,-0.213,-0.2127,-0.2074,-0.2075,-0.2076,-0.2125,0,0,0,0,0,0,-0.2486,-0.2472,-0.2467,-0.2411,-0.2395,-0.235,-0.2321,-0.2309,-0.2288,-0.2284,-0.2229,-0.2219,-0.2184,-0.2152,-0.2144,-0.2146,-0.2124,-0.2074,-0.2075,-0.2075,-0.2123,-0.2127,-0.2131,0,0,0,0,0,-0.249,-0.2484,-0.2467,-0.2456,-0.2388,-0.2351,-0.2341,-0.2301,-0.2289,-0.2284,-0.2249,-0.2221,-0.2152,-0.215,-0.214,-0.2141,-0.2073,-0.2074,-0.2075,-0.2121,-0.2126,-0.2131,0,0,0,0,0,0,-0.2541,-0.2476,-0.2457,-0.2432,-0.2398,-0.2341,-0.2333,-0.2308,-0.2276,-0.2273,-0.2224,-0.2212,-0.219,-0.2162,-0.2161,-0.2129,-0.211,-0.2109,-0.2148,-0.2153,-0.2157,-0.2164,-0.2122,0,0,0,0,0,-0.255,-0.2524,-0.2469,-0.2453,-0.2436,-0.2388,-0.237,-0.2342,-0.2304,-0.2289,-0.2252,-0.2216,-0.2187,-0.2168,-0.2137,-0.2119,-0.2107,-0.2115,-0.2119,-0.2123,-0.2123,-0.2114,-0.2117,-0.208,-0.208,-0.208,0,0,-0.2566,-0.2528,-0.2515,-0.2462,-0.2432,-0.2408,-0.2376,-0.2351,-0.2333,-0.2285,-0.2257,-0.2229,-0.2186,-0.2164,-0.2152,-0.214,-0.2131,-0.2125,-0.2128,-0.2126,-0.2115,-0.2119,-0.2122,-0.208,-0.208,-0.208,0,0,-0.2585,-0.2553,-0.2536,-0.2508,-0.2463,-0.2431,-0.2428,-0.2376,-0.2355,-0.2327,-0.2292,-0.227,-0.2219,-0.2191,-0.217,-0.2182,-0.2156,-0.2173,-0.2195,-0.2187,-0.219,-0.2192,-0.2198,-0.2201,-0.2173,-0.2173,-0.2173,0,-0.2611,-0.2573,-0.2531,-0.2509,-0.2488,-0.2445,-0.243,-0.2403,-0.2351,-0.2338,-0.2326,-0.2264,-0.2232,-0.2204,-0.2207,-0.2191,-0.2186,-0.2179,-0.2193,-0.2195,-0.2196,-0.2201,-0.2204,-0.2176,-0.2176,-0.2175,-0.2175,0,-0.2609,-0.2584,-0.2576,-0.2528,-0.2506,-0.2487,-0.2443,-0.2426,-0.2401,-0.2371,-0.2344,-0.2305,-0.2267,-0.2258,-0.2232,-0.2227,-0.2222,-0.2202,-0.2181,-0.2203,-0.2207,-0.2209,-0.2179,-0.2179,-0.2178,-0.2177,0,0,-0.2655,-0.2586,-0.2584,-0.2563,-0.2512,-0.2492,-0.2472,-0.2436,-0.2423,-0.239,-0.2373,-0.2333,-0.2316,-0.2292,-0.2263,-0.2256,-0.227,-0.2237,-0.2235,-0.2246,-0.2264,-0.228,-0.2283,-0.2253,-0.2253,-0.2253,-0.2268,0,-0.2667,-0.2629,-0.2592,-0.2568,-0.2545,-0.2506,-0.2489,-0.2457,-0.2429,-0.2406,-0.2375,-0.2349,-0.2327,-0.2313,-0.2303,-0.227,-0.2273,-0.2269,-0.2238,-0.2237,-0.225,-0.2284,-0.23,-0.2316,-0.2269,-0.2269,-0.227,0,-0.2675,-0.2644,-0.2619,-0.2573,-0.2562,-0.2547,-0.2513,-0.2491,-0.2454,-0.2435,-0.241,-0.2381,-0.236,-0.2342,-0.2313,-0.2311,-0.2296,-0.2278,-0.2278,-0.2274,-0.2255,-0.2282,-0.232,-0.2323,-0.2271,-0.2271,-0.2271,0,-0.2713,-0.2665,-0.2644,-0.2627,-0.2573,-0.2564,-0.2541,-0.2504,-0.2485,-0.2456,-0.2444,-0.2411,-0.2394,-0.237,-0.2333,-0.2323,-0.2309,-0.2288,-0.2293,-0.2295,-0.2292,-0.2293,-0.2329,-0.2281,-0.2281,-0.2281,-0.2281,0,-0.273,-0.2716,-0.2661,-0.2648,-0.2632,-0.2591,-0.2576,-0.255,-0.2518,-0.25,-0.2464,-0.2448,-0.24,-0.2379,-0.235,-0.2332,-0.2324,-0.2308,-0.2301,-0.2312,-0.2314,-0.2302,-0.23,-0.2282,-0.2282,-0.2282,-0.2282,0,-0.2769,-0.2732,-0.2707,-0.2658,-0.2646,-0.2636,-0.2595,-0.2582,-0.2553,-0.2531,-0.2524,-0.2479,-0.2452,-0.2414,-0.2375,-0.2356,-0.2343,-0.233,-0.2355,-0.2351,-0.2359,-0.236,-0.2389,-0.2392,-0.2343,-0.2343,-0.2344,0,-0.2783,-0.2772,-0.2723,-0.2709,-0.2687,-0.2665,-0.2646,-0.2606,-0.2589,-0.2548,-0.254,-0.2511,-0.2486,-0.2446,-0.241,-0.2381,-0.2368,-0.2381,-0.2364,-0.2376,-0.237,-0.2372,-0.2372,-0.2385,-0.2386,-0.2386,-0.2387,0,-0.2812,-0.2795,-0.277,-0.274,-0.2719,-0.2693,-0.2665,-0.2656,-0.261,-0.2593,-0.2566,-0.2547,-0.2509,-0.2481,-0.2448,-0.2425,-0.2399,-0.2393,-0.2393,-0.2404,-0.242,-0.2413,-0.2367,-0.2392,-0.2392,-0.2391,-0.2391,-0.2391,-0.284,-0.2829,-0.2794,-0.2768,-0.2743,-0.2719,-0.2705,-0.2676,-0.2653,-0.2619,-0.2597,-0.2572,-0.2538,-0.2492,-0.247,-0.2451,-0.2439,-0.2439,-0.2439,-0.244,-0.2445,-0.2423,-0.2444,-0.2444,-0.2444,-0.2444,-0.2444,0,-0.2868,-0.2844,-0.2821,-0.2784,-0.2765,-0.2743,-0.2712,-0.2697,-0.2676,-0.2647,-0.2624,-0.2595,-0.2569,-0.2532,-0.2504,-0.2495,-0.2483,-0.2489,-0.249,-0.2485,-0.2456,-0.2459,-0.25,-0.25,-0.25,-0.25,-0.25,-0.25,-0.288,-0.2862,-0.2841,-0.2811,-0.2787,-0.2763,-0.2747,-0.2725,-0.2702,-0.2671,-0.265,-0.2627,-0.2595,-0.2565,-0.2541,-0.2531,-0.2523,-0.2533,-0.252,-0.2492,-0.2487,-0.2482,-0.2485,-0.2531,-0.2531,-0.2551,-0.2551,-0.2551]},{"header":{"parameterUnit":"m.s-1","parameterCategory":1,"la1":30.2991,"la2":30.254,"lo1":-89.0895,"lo2":-89.0444,"dy":0.0017,"dx":0.0017,"nx":28,"ny":28,"refTime":"2024-03-17T03:00:00:Z","depth":0,"parameterNumber":3,"parameterNumberName":"V-component_of_WINDS"},"data":[0,0,0,0,0,0,0,0,0,0,0,0,0,0,0,0,0,0,0,0,0,0,0,0,0,0,0,0,0,0,0,0,0,0,0,0,0,0,0,0,0,0,0,0,0,0,0,0,0,0,0,0,0,0,0,0,0,0,2.7385,2.7384,0,2.7333,2.7333,2.7332,2.7335,2.7336,2.7337,2.7337,2.7279,2.7277,2.7275,0,0,0,0,0,0,0,0,0,0,0,0,0,2.7482,2.748,2.7385,2.7384,2.7384,2.7333,2.7333,2.7332,2.7335,2.7336,2.7337,2.7338,2.728,2.7277,2.7275,0,0,0,0,0,0,0,0,0,0,0,0,0,2.7436,2.7479,2.7385,2.7379,2.7378,2.7333,2.7333,2.7332,2.7335,2.7336,2.7337,2.7338,2.7281,2.7278,2.7274,2.723,0,0,2.7264,2.7262,0,0,0,0,0,0,0,0,2.7438,2.7432,2.7381,2.738,2.7378,2.7342,2.7345,2.7297,2.7334,2.7351,2.7337,2.7339,2.7299,2.7294,2.7282,2.7228,2.7225,2.7264,2.7261,2.726,2.7259,0,0,0,0,0,0,0,2.7441,2.7434,2.7364,2.738,2.7378,2.7378,2.7372,2.7336,2.7319,2.735,2.735,2.7344,2.7298,2.7285,2.728,2.7224,2.7264,2.7261,2.7258,2.7257,2.7131,2.713,0,0,0,0,0,0,2.7447,2.7437,2.7366,2.7363,2.7412,2.7375,2.7369,2.7352,2.7319,2.7316,2.7343,2.7344,2.729,2.7284,2.7278,2.7224,2.726,2.7257,2.7255,2.7132,2.7131,2.7129,0,0,0,0,0,0,2.7449,2.744,2.7368,2.74,2.7391,2.7372,2.7353,2.7351,2.7337,2.7314,2.7311,2.7333,2.7291,2.7283,2.7242,2.7222,2.7255,2.7252,2.7134,2.7132,2.713,2.7116,0,0,0,0,0,0,2.7451,2.7441,2.7425,2.74,2.7389,2.7334,2.7352,2.7349,2.7332,2.7333,2.7304,2.73,2.7291,2.7248,2.7239,2.7218,2.725,2.7136,2.7133,2.7131,2.7118,2.7114,2.711,0,0,0,0,0,2.7455,2.7422,2.7424,2.7416,2.7369,2.7333,2.7327,2.7319,2.7331,2.7314,2.7299,2.7301,2.7226,2.7243,2.7234,2.7212,2.7137,2.7134,2.7131,2.712,2.7115,2.711,0,0,0,0,0,0,2.7444,2.7419,2.7421,2.7379,2.7359,2.7334,2.7312,2.7314,2.7288,2.729,2.7279,2.7273,2.7232,2.7218,2.7237,2.7167,2.7183,2.7178,2.7178,2.7173,2.7169,2.7172,2.7247,0,0,0,0,0,2.7437,2.7412,2.739,2.7356,2.7345,2.7331,2.7315,2.7311,2.7288,2.7279,2.7261,2.7238,2.7209,2.719,2.7163,2.7117,2.711,2.7097,2.7093,2.709,2.7085,2.7059,2.7053,2.712,2.712,2.712,0,0,2.7421,2.7405,2.7389,2.7353,2.7336,2.7309,2.7323,2.7293,2.7272,2.7274,2.7235,2.7221,2.7194,2.7151,2.7131,2.7138,2.7065,2.7086,2.7083,2.708,2.7055,2.7049,2.7043,2.7118,2.7118,2.7118,0,0,2.7379,2.7365,2.7334,2.7318,2.7293,2.7284,2.7277,2.7252,2.7243,2.7205,2.7205,2.7179,2.713,2.7111,2.7095,2.7047,2.7047,2.7038,2.7016,2.6991,2.6986,2.6981,2.6963,2.6957,2.7034,2.7034,2.7034,0,2.7363,2.7323,2.7317,2.7288,2.7271,2.7274,2.7242,2.7226,2.7193,2.718,2.719,2.7128,2.711,2.7062,2.7051,2.7038,2.7028,2.704,2.6987,2.6983,2.6978,2.696,2.6954,2.7033,2.7033,2.7033,2.7033,0,2.7303,2.7276,2.7253,2.7224,2.7205,2.7174,2.7163,2.7144,2.7142,2.7131,2.7091,2.707,2.7038,2.7027,2.7023,2.6978,2.6983,2.699,2.7005,2.6971,2.6954,2.6947,2.7031,2.7032,2.7032,2.7032,0,0,2.7251,2.722,2.7212,2.7198,2.7172,2.7149,2.7119,2.7089,2.7073,2.705,2.7023,2.6982,2.6989,2.697,2.6965,2.6943,2.6905,2.6952,2.6952,2.6944,2.6853,2.6847,2.684,2.6906,2.6905,2.6904,2.6855,0,2.7206,2.7152,2.7147,2.7099,2.7072,2.7074,2.7047,2.7027,2.7017,2.6992,2.698,2.6951,2.6962,2.6951,2.6929,2.6915,2.6887,2.6918,2.6879,2.6878,2.6885,2.6831,2.6825,2.678,2.6849,2.6848,2.6847,0,2.7145,2.7122,2.7072,2.705,2.7038,2.7014,2.6987,2.6964,2.6941,2.6935,2.6915,2.6913,2.6879,2.6897,2.6851,2.6872,2.6856,2.6846,2.6844,2.6839,2.6859,2.6823,2.6765,2.6758,2.6837,2.6837,2.6838,0,2.7111,2.7068,2.7032,2.7021,2.6994,2.6977,2.6964,2.6943,2.6926,2.6901,2.689,2.6862,2.6845,2.6823,2.6813,2.6827,2.6766,2.6783,2.6759,2.6759,2.6744,2.6745,2.6682,2.6736,2.6736,2.6737,2.6737,0,2.706,2.7028,2.7017,2.6994,2.6959,2.6953,2.6918,2.6906,2.6887,2.6862,2.6862,2.6837,2.6826,2.68,2.6792,2.6754,2.6746,2.6739,2.6737,2.6739,2.6739,2.6727,2.6729,2.6735,2.6735,2.6736,2.6736,0,2.7015,2.7006,2.6967,2.6946,2.6939,2.6914,2.6895,2.6873,2.6863,2.6831,2.6823,2.6807,2.6776,2.6765,2.6726,2.6721,2.6677,2.6678,2.6685,2.6684,2.666,2.6662,2.6584,2.6574,2.6637,2.6636,2.6636,0,2.6982,2.6959,2.6935,2.6919,2.6907,2.688,2.6863,2.6856,2.6838,2.6811,2.6791,2.6761,2.6737,2.6687,2.6671,2.6642,2.6641,2.6616,2.6637,2.6639,2.664,2.6641,2.6638,2.6612,2.6611,2.6611,2.6611,0,2.6925,2.6922,2.6898,2.6873,2.6853,2.6832,2.6811,2.6798,2.6787,2.6767,2.6736,2.6717,2.6679,2.6649,2.6619,2.6605,2.6605,2.6605,2.6597,2.6598,2.6602,2.6599,2.6673,2.6606,2.6606,2.6607,2.6607,2.6607,2.6884,2.6863,2.6844,2.6817,2.6801,2.6783,2.6761,2.6749,2.6724,2.6694,2.6691,2.6658,2.6635,2.6596,2.6581,2.6554,2.656,2.6549,2.6546,2.6544,2.6542,2.6608,2.6548,2.6548,2.6548,2.6549,2.6549,0,2.6826,2.6814,2.679,2.6762,2.6741,2.6746,2.6724,2.6705,2.6676,2.6656,2.6633,2.6597,2.6568,2.6551,2.6521,2.6502,2.6502,2.6495,2.6495,2.6492,2.6538,2.6547,2.6496,2.6496,2.6496,2.6496,2.6496,2.6496,2.6794,2.6758,2.6753,2.6709,2.6697,2.6666,2.6652,2.6635,2.6619,2.658,2.6556,2.6546,2.6526,2.6495,2.6468,2.6464,2.6452,2.6444,2.644,2.6483,2.6489,2.6494,2.6502,2.6442,2.6442,2.6396,2.6396,2.6395]}]]